Time,TemperatureF,DewpointF,PressureIn,WindDirection,WindDirectionDegrees,WindSpeedMPH,WindSpeedGustMPH,Humidity,HourlyPrecipIn,Conditions,Clouds,dailyrainin,SoftwareType,DateUTC
2013-10-17 00:01:00,33.0,30.0,-100.00,NNW,335,8.0,9.0,91,-99.99,,,0.00,,2013-10-17 06:01:00,
2013-10-17 00:13:00,33.0,31.0,-100.00,North,350,9.0,12.0,90,-99.99,,,0.00,,2013-10-17 06:13:00,
2013-10-17 00:42:00,33.0,30.0,-100.00,NNW,335,8.0,9.0,91,-99.99,,,0.00,,2013-10-17 06:42:00,
2013-10-17 00:52:00,33.0,30.0,-100.00,NNW,335,8.0,9.0,91,-99.99,,,0.00,,2013-10-17 06:52:00,
2013-10-17 01:11:00,32.0,30.0,-100.00,SSW,210,2.0,4.0,91,-99.99,,,0.00,,2013-10-17 07:11:00,
2013-10-17 01:22:00,32.0,30.0,-100.00,SSW,210,2.0,4.0,91,-99.99,,,0.00,,2013-10-17 07:22:00,
2013-10-17 01:43:00,32.0,30.0,-100.00,WSW,250,3.0,4.0,91,-99.99,,,0.00,,2013-10-17 07:43:00,
2013-10-17 01:52:00,32.0,30.0,-100.00,WSW,250,3.0,4.0,91,-99.99,,,0.00,,2013-10-17 07:52:00,
2013-10-17 02:01:00,33.0,30.0,-100.00,SW,215,0.0,3.0,91,-99.99,,,0.00,,2013-10-17 08:01:00,
2013-10-17 02:11:00,32.0,30.0,-100.00,WSW,255,3.0,6.0,91,-99.99,,,0.00,,2013-10-17 08:11:00,
2013-10-17 02:21:00,32.0,30.0,-100.00,WSW,255,3.0,6.0,91,-99.99,,,0.00,,2013-10-17 08:21:00,
2013-10-17 02:42:00,33.0,30.0,-100.00,SW,215,0.0,3.0,91,-99.99,,,0.00,,2013-10-17 08:42:00,
2013-10-17 02:52:00,33.0,30.0,-100.00,SW,215,0.0,3.0,91,-99.99,,,0.00,,2013-10-17 08:52:00,
2013-10-17 03:00:00,33.0,31.0,-100.00,SW,235,1.0,3.0,91,-99.99,,,0.00,,2013-10-17 09:00:00,
2013-10-17 03:21:00,32.0,30.0,-100.00,SW,230,1.0,3.0,91,-99.99,,,0.00,,2013-10-17 09:21:00,
2013-10-17 03:42:00,33.0,31.0,-100.00,SW,235,1.0,3.0,91,-99.99,,,0.00,,2013-10-17 09:42:00,
2013-10-17 03:53:00,33.0,31.0,-100.00,SW,235,1.0,3.0,91,-99.99,,,0.00,,2013-10-17 09:53:00,
2013-10-17 04:42:00,33.0,30.0,-100.00,SSW,200,1.0,3.0,91,-99.99,,,0.00,,2013-10-17 10:42:00,
2013-10-17 04:53:00,33.0,30.0,-100.00,SSW,200,1.0,3.0,91,-99.99,,,0.00,,2013-10-17 10:53:00,
2013-10-17 05:11:00,33.0,31.0,-100.00,SW,225,0.0,2.0,91,-99.99,,,0.00,,2013-10-17 11:11:00,
2013-10-17 05:42:00,33.0,31.0,-100.00,WSW,255,2.0,5.0,91,-99.99,,,0.00,,2013-10-17 11:42:00,
2013-10-17 05:52:00,33.0,31.0,-100.00,WSW,255,2.0,5.0,91,-99.99,,,0.00,,2013-10-17 11:52:00,
2013-10-17 06:01:00,33.0,31.0,-100.00,SW,230,0.0,2.0,91,-99.99,,,0.00,,2013-10-17 12:01:00,
2013-10-17 06:12:00,33.0,31.0,-100.00,SW,225,1.0,3.0,91,-99.99,,,0.00,,2013-10-17 12:12:00,
2013-10-17 06:22:00,33.0,31.0,-100.00,SW,225,1.0,3.0,91,-99.99,,,0.00,,2013-10-17 12:22:00,
2013-10-17 06:42:00,33.0,31.0,-100.00,SW,230,0.0,2.0,91,-99.99,,,0.00,,2013-10-17 12:42:00,
2013-10-17 06:52:00,33.0,31.0,-100.00,SW,230,0.0,2.0,91,-99.99,,,0.00,,2013-10-17 12:52:00,
2013-10-17 07:00:00,33.0,31.0,-100.00,North,-999,0.0,0.0,91,-99.99,,,0.00,,2013-10-17 13:00:00,
2013-10-17 07:22:00,33.0,31.0,-100.00,North,-999,0.0,0.0,91,-99.99,,,0.00,,2013-10-17 13:22:00,
2013-10-17 07:42:00,33.0,31.0,-100.00,North,-999,0.0,0.0,91,-99.99,,,0.00,,2013-10-17 13:42:00,
2013-10-17 07:52:00,33.0,31.0,-100.00,North,-999,0.0,0.0,91,-99.99,,,0.00,,2013-10-17 13:52:00,
2013-10-17 08:02:00,34.0,31.0,-100.00,North,-999,0.0,0.0,89,-99.99,,,0.00,,2013-10-17 14:02:00,
2013-10-17 08:42:00,34.0,31.0,-100.00,North,-999,0.0,0.0,89,-99.99,,,0.00,,2013-10-17 14:42:00,
2013-10-17 08:52:00,34.0,31.0,-100.00,North,-999,0.0,0.0,89,-99.99,,,0.00,,2013-10-17 14:52:00,
2013-10-17 09:22:00,34.0,31.0,-100.00,North,-999,0.0,0.0,88,-99.99,,,0.00,,2013-10-17 15:22:00,
2013-10-17 09:43:00,35.0,31.0,-100.00,North,-999,0.0,0.0,86,-99.99,,,0.00,,2013-10-17 15:43:00,
2013-10-17 10:23:00,36.0,31.0,-100.00,South,185,1.0,2.0,81,-99.99,,,0.00,,2013-10-17 16:23:00,
2013-10-17 10:42:00,37.0,27.0,-100.00,South,185,0.0,2.0,67,-99.99,,,0.00,,2013-10-17 16:42:00,
2013-10-17 10:53:00,37.0,27.0,-100.00,South,185,0.0,2.0,67,-99.99,,,0.00,,2013-10-17 16:53:00,
2013-10-17 11:00:00,39.0,24.0,-100.00,NW,315,0.0,2.0,53,-99.99,,,0.00,,2013-10-17 17:00:00,
2013-10-17 11:12:00,37.0,24.0,-100.00,North,-999,0.0,0.0,58,-99.99,,,0.00,,2013-10-17 17:12:00,
2013-10-17 11:21:00,37.0,24.0,-100.00,North,-999,0.0,0.0,58,-99.99,,,0.00,,2013-10-17 17:21:00,
2013-10-17 11:42:00,39.0,24.0,-100.00,NW,315,0.0,2.0,53,-99.99,,,0.00,,2013-10-17 17:42:00,
2013-10-17 11:52:00,39.0,24.0,-100.00,NW,315,0.0,2.0,53,-99.99,,,0.00,,2013-10-17 17:52:00,
2013-10-17 12:00:00,39.0,23.0,-100.00,West,275,1.0,4.0,52,-99.99,,,0.00,,2013-10-17 18:00:00,
2013-10-17 12:21:00,39.0,22.0,-100.00,NW,305,0.0,3.0,50,-99.99,,,0.00,,2013-10-17 18:21:00,
2013-10-17 12:42:00,39.0,23.0,-100.00,West,275,1.0,4.0,52,-99.99,,,0.00,,2013-10-17 18:42:00,
2013-10-17 12:52:00,39.0,23.0,-100.00,West,275,1.0,4.0,52,-99.99,,,0.00,,2013-10-17 18:52:00,
2013-10-17 13:00:00,39.0,24.0,-100.00,WNW,295,0.0,7.0,55,-99.99,,,0.00,,2013-10-17 19:00:00,
2013-10-17 13:21:00,39.0,23.0,-100.00,West,280,0.0,6.0,53,-99.99,,,0.00,,2013-10-17 19:21:00,
2013-10-17 13:42:00,39.0,24.0,-100.00,WNW,295,0.0,7.0,55,-99.99,,,0.00,,2013-10-17 19:42:00,
2013-10-17 13:53:00,39.0,24.0,-100.00,WNW,295,0.0,7.0,55,-99.99,,,0.00,,2013-10-17 19:53:00,
2013-10-17 14:00:00,38.0,27.0,-100.00,West,275,1.0,6.0,64,-99.99,,,0.00,,2013-10-17 20:00:00,
2013-10-17 14:42:00,38.0,27.0,-100.00,West,275,1.0,6.0,64,-99.99,,,0.00,,2013-10-17 20:42:00,
2013-10-17 14:52:00,38.0,27.0,-100.00,West,275,1.0,6.0,64,-99.99,,,0.00,,2013-10-17 20:52:00,
2013-10-17 15:00:00,38.0,29.0,-100.00,WNW,295,1.0,5.0,68,-99.99,,,0.00,,2013-10-17 21:00:00,
2013-10-17 15:21:00,39.0,29.0,-100.00,West,280,0.0,6.0,68,-99.99,,,0.00,,2013-10-17 21:21:00,
2013-10-17 15:44:00,38.0,29.0,-100.00,WNW,295,1.0,5.0,68,-99.99,,,0.00,,2013-10-17 21:44:00,
2013-10-17 15:54:00,38.0,29.0,-100.00,WNW,295,1.0,5.0,68,-99.99,,,0.00,,2013-10-17 21:54:00,
2013-10-17 16:43:00,39.0,31.0,-100.00,NW,310,0.0,4.0,72,-99.99,,,0.00,,2013-10-17 22:43:00,
2013-10-17 16:53:00,39.0,31.0,-100.00,NW,310,0.0,4.0,72,-99.99,,,0.00,,2013-10-17 22:53:00,
2013-10-17 17:13:00,42.0,27.0,-100.00,NW,310,1.0,9.0,55,-99.99,,,0.00,,2013-10-17 23:13:00,
2013-10-17 17:22:00,42.0,27.0,-100.00,NW,310,1.0,9.0,55,-99.99,,,0.00,,2013-10-17 23:22:00,
2013-10-17 17:43:00,39.0,24.0,-100.00,WNW,285,1.0,8.0,54,-99.99,,,0.00,,2013-10-17 23:43:00,
2013-10-17 17:53:00,39.0,24.0,-100.00,WNW,285,1.0,8.0,54,-99.99,,,0.00,,2013-10-17 23:53:00,
2013-10-17 18:12:00,40.0,25.0,-100.00,West,275,1.0,4.0,54,-99.99,,,0.00,,2013-10-18 00:12:00,
2013-10-17 18:22:00,40.0,25.0,-100.00,West,275,1.0,4.0,54,-99.99,,,0.00,,2013-10-18 00:22:00,
2013-10-17 18:42:00,39.0,25.0,-100.00,WSW,250,1.0,6.0,57,-99.99,,,0.00,,2013-10-18 00:42:00,
2013-10-17 18:52:00,39.0,25.0,-100.00,WSW,250,1.0,6.0,57,-99.99,,,0.00,,2013-10-18 00:52:00,
2013-10-17 19:12:00,39.0,27.0,-100.00,WSW,250,0.0,3.0,62,-99.99,,,0.00,,2013-10-18 01:12:00,
2013-10-17 19:42:00,37.0,30.0,-100.00,WSW,240,1.0,6.0,76,-99.99,,,0.00,,2013-10-18 01:42:00,
2013-10-17 19:52:00,37.0,30.0,-100.00,WSW,240,1.0,6.0,76,-99.99,,,0.00,,2013-10-18 01:52:00,
2013-10-17 20:11:00,37.0,32.0,-100.00,West,270,9.0,16.0,83,-99.99,,,0.00,,2013-10-18 02:11:00,
2013-10-17 20:42:00,37.0,33.0,-100.00,West,280,10.0,16.0,85,-99.99,,,0.00,,2013-10-18 02:42:00,
2013-10-17 20:52:00,37.0,33.0,-100.00,West,280,10.0,16.0,85,-99.99,,,0.00,,2013-10-18 02:52:00,
2013-10-17 21:11:00,37.0,33.0,-100.00,NW,305,11.0,14.0,85,-99.99,,,0.00,,2013-10-18 03:11:00,
2013-10-17 21:22:00,37.0,33.0,-100.00,NW,305,11.0,14.0,85,-99.99,,,0.00,,2013-10-18 03:22:00,
2013-10-17 21:44:00,36.0,31.0,-100.00,North,0,7.0,9.0,82,-99.99,,,0.00,,2013-10-18 03:44:00,
2013-10-17 21:54:00,36.0,31.0,-100.00,North,0,7.0,9.0,82,-99.99,,,0.00,,2013-10-18 03:54:00,
2013-10-17 22:00:00,35.0,31.0,-100.00,NW,325,11.0,14.0,85,-99.99,,,0.00,,2013-10-18 04:00:00,
2013-10-17 22:14:00,35.0,30.0,-100.00,North,0,11.0,12.0,82,-99.99,,,0.00,,2013-10-18 04:14:00,
2013-10-17 22:24:00,35.0,30.0,-100.00,North,0,11.0,12.0,82,-99.99,,,0.00,,2013-10-18 04:24:00,
2013-10-17 22:43:00,35.0,31.0,-100.00,NW,325,11.0,14.0,85,-99.99,,,0.00,,2013-10-18 04:43:00,
2013-10-17 22:53:00,35.0,31.0,-100.00,NW,325,11.0,14.0,85,-99.99,,,0.00,,2013-10-18 04:53:00,
2013-10-17 23:00:00,33.0,31.0,-100.00,NW,325,13.0,19.0,89,-99.99,,,0.00,,2013-10-18 05:00:00,
2013-10-17 23:43:00,33.0,31.0,-100.00,NW,325,13.0,19.0,89,-99.99,,,0.00,,2013-10-18 05:43:00,
2013-10-17 23:52:00,33.0,31.0,-100.00,NW,325,13.0,19.0,89,-99.99,,,0.00,,2013-10-18 05:52:00,